www.pogodaiklimat.ru

Погода и климат >> Архив погоды >> Украина >> Могилев-Подольский


ПОГОДА в Могилев-Подольском

  • Прогноз погоды в Могилев-Подольском
  • Монитор погоды в Могилев-Подольском
  • Климат города

АРХИВ ПОГОДЫ в Могилев-Подольском

Время (UTC), дата Ветер
(напр.,м/с)
 
Видим.   Явления Облачность Т
(С)
Тd
(С)
f
(%)
Тe
(С)
Тes
(С)
Комфортность P
(гПа)
Po
(гПа)
Тmin
(С)
Tmax
(С)
R
(мм)
R24
(мм)
S
(см)
06 14.02 В 2 4000 м слабый ливневой снег 10/10 750 м
[Cb calv]
-0.6 -2.1 90 -4 -4 1017.6 1007.7 -0.7 0.3 10
09 14.02 ЮВ 2 20 км в посл. час ливневой снег 10/5 600 м
[Cb calv Ac und]
+0.9 -2.1 80 -2 -2 1018.4 1008.6
12 14.02 ЮВ 2 20 км {ливн. осадки} 10/5 600 м
[Cb calv Ac und]
+0.8 -2.1 81 -3 -2 1018.4 1008.6
15 14.02 В 2 10 км в посл. час ливневой снег 10/8 800 м
[Cb calv Ac und]
0.0 -2.0 86 -4 -4 1019.4 1009.5
18 14.02 ЮВ 2 10 км {ливн. осадки} 10/5 600 м
[Cb calv Ac und]
-0.7 -3.2 83 -4 -4 1020.4 1010.5 +1.2 0.5
21 14.02 В 2 2000 м слабый ливневой снег 10/8 720 м
[Cb calv Ac und]
-1.6 -4.0 84 -5 -5 1020.4 1010.5
00 15.02 В 2 10 км {ливн. осадки} 10/5 600 м
[Sc Ac und]
-2.4 -4.6 85 -6 -6 1021.1 1011.1
03 15.02 В 2 2000 м слабый ливневой снег 10/10 700 м
[Cb calv]
-2.2 -4.4 85 -6 -6 1021.5 1011.5
06 15.02 В 2 10 км в посл. час ливневой снег 10/10 700 м
[Cb calv]
-2.1 -4.2 86 -6 -6 1022.3 1012.3 -2.6 1 11
09 15.02 В 3 4000 м слабый ливневой снег 10/8 600 м
[Cb calv Ac und]
-0.8 -2.3 90 -6 -6 1023.3 1013.4
12 15.02 штиль 0 10 км {ливн. осадки} 10/10 660 м
[Sc]
+0.9 -2.3 79 -0 -0 1023.6 1013.7
15 15.02 ЮВ 1 10 км 10/6 800 м
[Sc Ac und]
+0.7 -1.9 83 -1 -1 1024.6 1014.7
18 15.02 штиль 0 10 км 10/10 660 м
[Sc]
+0.4 -1.3 88 -1 -1 1026.0 1016.1 +1.1 0.6
21 15.02 штиль 0 10 км 10/10 720 м
[Sc]
+0.5 -0.9 90 -1 -1 1026.1 1016.2
00 16.02 штиль 0 2000 м дымка 10/8 750 м
[Sc Ac und]
+0.3 -0.8 92 -1 -1 1026.6 1016.7
03 16.02 штиль 0 2000 м слабый ливневой снег 10/8 660 м
[Cb cap Ac und]
+0.2 -0.4 96 -1 -1 1026.5 1016.6
06 16.02 штиль 0 500 м туман {ливн. осадки} ?/? +0.3 0.0 98 -1 -1 1026.8 1016.9 +0.1 0.2 11
09 16.02 ЮВ 1 500 м туман ?/? +1.4 +0.9 96 -1 -1 1026.8 1016.9
12 16.02 ЮВ 1 10 км {туман} 10/10 720 м
[Sc]
+2.0 +0.4 89 0 0 1026.4 1016.5
15 16.02 Ю 1 10 км 10/5 600 м
[Sc Ac und]
+2.6 +0.2 84 +1 +1 1025.2 1015.4
18 16.02 штиль 0 10 км 10/10 800 м
[Sc]
+1.6 0.0 89 0 0 1025.5 1015.6 +2.9
21 16.02 штиль 0 10 км 10/10 720 м
[Sc]
+0.7 -0.4 92 -1 -1 1025.5 1015.6
00 17.02 С 1 10 км 10/10 720 м
[Sc]
+0.8 -0.6 90 -1 -1 1026.3 1016.4
03 17.02 С 1 10 км 6/4 600 м
[Sc Ac trans]
0.0 -1.5 90 -2 -2 1026.3 1016.4
06 17.02 С 1 10 км 10/5 600 м
[Cb calv Ac und]
+0.4 -1.0 90 -2 -2 1026.0 1016.1 -0.3 10
09 17.02 С 1 20 км 8/0
[Ac trans]
+2.9 -1.3 74 +2 +5 1026.4 1016.6
12 17.02 З 2 20 км 3/0
[Ac trans]
+5.8 -5.6 44 +4 +7 1025.8 1016.1
15 17.02 З 1 20 км 3/0
[Ci fib]
+4.0 -4.7 53 +3 +3 1024.9 1015.1
18 17.02 штиль 0 10 км ясно -0.8 -3.3 83 -2 -2 1025.1 1015.1 +6.1
21 17.02 штиль 0 10 км ясно -3.7 -4.8 92 -5 -5 1024.9 1014.8
00 18.02 штиль 0 10 км ясно -5.1 -6.5 90 -6 -6 1024.7 1014.6
03 18.02 штиль 0 10 км ясно -4.4 -5.7 91 -6 -6 1023.9 1013.8
06 18.02 штиль 0 10 км 8/0
[Ac trans Ci fib]
-5.2 -6.2 93 -6 -6 1024.2 1014.1 -5.4 8
09 18.02 штиль 0 20 км 9/0
[Ac trans Ci]
-0.1 -5.1 69 -1 +4 1024.0 1014.1
12 18.02 штиль 0 20 км 10/0
[Ac trans]
+3.6 -3.8 58 +3 +5 1023.7 1013.9
15 18.02 З 2 20 км 9/3 600 м
[Sc Ac trans]
+3.4 -4.4 57 +1 +1 1023.0 1013.2
18 18.02 СЗ 1 10 км 8/3 600 м
[Sc Ac trans]
+1.6 -2.8 73 0 0 1023.9 1014.0 +4.4
21 18.02 СЗ 1 10 км 8/0
[Ac trans]
+0.6 -2.0 83 -1 -1 1024.6 1014.7
00 19.02 С 2 10 км 8/0
[Ac trans]
0.0 -4.4 72 -3 -3 1025.3 1015.4
03 19.02 СЗ 1 10 км 9/0
[Ac trans]
-2.0 -6.5 71 -4 -4 1025.4 1015.4
06 19.02 СЗ 1 20 км 8/0
[Ac trans Ci fib]
-1.3 -7.6 62 -3 -2 1026.6 1016.6 -2.3 7
09 19.02 С 3 20 км 9/8 1050 м
[Sc Ac trans]
-0.1 -8.2 54 -4 -4 1027.3 1017.3
12 19.02 З 2 20 км ясно +1.1 -6.1 59 -2 +3 1027.0 1017.1
15 19.02 СВ 1 20 км ясно +0.7 -9.3 47 -0 -0 1026.7 1016.8
18 19.02 штиль 0 10 км ясно -4.0 -7.7 75 -5 -5 1027.2 1017.1 +1.6
21 19.02 штиль 0 10 км ясно -6.8 -8.4 88 -8 -8 1026.9 1016.7
00 20.02 штиль 0 10 км ясно -8.8 -10.7 86 -9 -9 1027.0 1016.7
03 20.02 штиль 0 2000 м дымка ясно -10.7 -11.4 95 -11 -11 1026.9 1016.5
06 20.02 штиль 0 4000 м дымка 1/0
[Ci sp]
-11.7 -12.4 95 -12 -11 1027.0 1016.6 -12.0 6
09 20.02 штиль 0 20 км 3/0
[Ci fib]
-2.2 -7.7 66 -3 +4 1026.6 1016.6
12 20.02 ЮВ 2 20 км 3/0
[Ci fib]
+1.5 -5.9 58 -1 +3 1025.2 1015.3
15 20.02 ЮВ 1 20 км 3/0
[Ci fib]
+1.1 -4.9 64 -0 -0 1023.9 1014.0
18 20.02 ЮВ 1 10 км 3/0
[Ci fib]
-1.7 -6.6 69 -4 -4 1023.7 1013.7 +2.1
21 20.02 ЮВ 1 10 км 6/0
[Ac trans]
-2.6 -7.1 71 -5 -5 1023.9 1013.9
00 21.02 ЮВ 1 10 км 10/0
[Ac und]
-2.6 -6.7 73 -5 -5 1023.9 1013.9

 

Местоположение метеостанции Могилев-Подольский (Винницкая область, Украина): широта 48.45 долгота 27.78 высота над уровнем моря 78 м.

В архиве по умолчанию представлена погода в Могилев-Подольском за последнюю неделю. Архивные данные за месяц целиком и за предыдущие месяцы, начиная с января 2011 года, Вы можете получить, выбрав интересующий диапазон дат из раскрывающегося списка и нажав кнопку "Ввод!".

Внимание! Время в таблицах - всемирное. Для получения местного времени необходимо прибавить поправку, которая в Могилев-Подольском равна 2 ч.

Смотрите также архив погоды в соседних городах и на ближайших метеорологических станциях:

Погода в Новоднестровске (Черновицкая область, Украина) (28 км)
Погода в Сороках (Молдова) (47 км)
Погода в Бричанах (Молдова) (53 км)
Погода в Новой Ушице (Хмельницкая область, Украина) (58 км)
Погода в Жмеринке (Винницкая область, Украина) (71 км)
Погода в Бельцах (Молдова) (76 км)
Погода в Stanca Stefanesti (Румыния) (81 км)
Погода в Каменке (Молдова) (83 км)
Погода в Каменец-Подольском (Хмельницкая область, Украина) (85 км)
Погода в Darabani (Румыния) (93 км)

Пояснения к столбцам:

Ветер - указаны скорость ветра в м/с - средняя за 10 мин, порывы в срок и между сроками (в фигурных скобках) и направление, откуда дует ветер: С - северный, СВ - северо-восточный, В - восточный, ЮВ - юго-восточный, Ю - южный, ЮЗ - юго-западный, З - западный, СЗ - северо-западный.
Видимость - горизонтальная дальность видимости в метрах или километрах. При видимости от 1 до 10 км при отсутствии осадков обычно наблюдается дымка, при ухудшении видимости до 1 км и менее - туман. В сухую погоду видимость может ухудшаться дымом, пылью или мглою.
Явления - указаны атмосферные явления, наблюдавшиеся в срок или в последний час перед сроком; фигурными скобками обозначены явления, наблюдавшиеся между сроками (за 1-3 часа до срока); квадратными скобками обозначены град или гололедные отложения с указанием их диаметра в мм.
Облачность - указаны через наклонную черту общая и нижняя облачность в баллах и высота нижней границы облаков в метрах; квадратными скобками обозначены формы облаков: Ci - перистые, Cs - перисто-слоистые, Cc - перисто-кучевые, Ac - высококучевые, As - высокослоистые, Sc - слоисто-кучевые, Ns - слоисто-дождевые, Cu - кучевые, Cb - кучево-дождевые. Подробнее классификацию облаков см. в Атласе облаков (PDF).
T - Температура воздуха - температура, измеренная на высоте 2 м над землей.
Td - Температура точки росы - температура, при понижении до которой содержащийся в воздухе водяной пар достигнет насыщения.
f - Относительная влажность воздуха - влажноcть воздуха, измеренная на высоте 2 м над землей.
Te - Эффективная температура - температура, которую ощущает одетый по сезону человек в тени. Характеристика душности погоды. При расчете учитывается влияние влажности воздуха и скорости ветра на теплоощущения человека.
Tes - Эффективная температура на солнце - температура, которую ощущает человек, с поправкой на солнечный нагрев. Характеристика знойности погоды. Зависит от высоты солнца над горизонтом, облачности и скорости ветра. Ночью, в пасмурную погоду, а также при ветре 12 м/с и более поправка равна нулю.
P - Атмосферное давление - приведенное к уровню моря атмосферное давление.
Po - Атмосферное давление - измеренное на уровне метеостанции атмосферное давление.
Tmin - Минимальная температура - минимум температуры воздуха на высоте 2 м над землей.
Tmax - Максимальная температура - максимум температуры воздуха на высоте 2 м над землей.
R - Количество осадков - Количество выпавших осадков за период времени, мм. При наведении курсора мыши на число - период времени, за который выпало указанное количество осадков.
R24 - Количество осадков - Количество выпавших осадков за 24 часа, мм.
S - Снежный покров - Высота снежного покрова, см. При наведении курсора мыши на число - состояние снежного покрова и степень покрытия местности в баллах.